SCP
0 0 0 0 0 0 0 0 0 0 0 -0 0 0 0 0 0 0 0 0 0 0 0 0 0 0 0 0 0 0 0 0 0 -0 -0 -0 0 -0 0 0 0 -0 0 -0
0 0 0 0 0 0 0 0 0 0 0 0 0 0 0 0 0 0 0 0 0 0 0 0 0 0 0 -0 0 0 0 0 0 0 0 0 0 -0 -0 -0 -0 -0 -0 -0
0 0 0 0 0 0 0 0 0 0 0 0 0 0 0 0 0 0 0 0 0 0 0 0 0 -0 0 0 0 0 0 0 0 -0 -0 -0 0 0 -0 0 0 0 -0 -0
0 0 0 0 0 0 0 0 0 0 0 0 0 0 0 0 0 0 0 0 0 0 0 -0 0 0 -0 0 0 0 0 0 -0 -0 -0 -0 -0 -0 -0 -0 0 -0 0 -0
0 0 0 0 0 0 0 0 0 0 0 0 0 0 0 0 0 0 0 0 0 0 0 0 -0 -0 0 0 0 0 0 0 -0 -0 -0 -0 0 0 0 -0 -0 -0 0 -0
0 0 0 0 0 0 0 0 0 0 0 0 0 0 0 0 0 0 0 0 0 0 0 0 0 0 0 0 0 0 -0 -0 0 0 0 0 0 0 0 -0 -0 -0 0 0
0 0 0 0 0 0 0 0 0 0 0 0 0 0 0 0 0 0 0 0 0 0 0 -0 0 0 0 0 0 0 0 0 -0 0 0 0 0 0 -0 -0 -0 0 0 0
0 0 0 0 0 0 0 0 0 0 0 0 0 0 0 0 0 0 0 0 0 0 0 0 -0 0 0 0 0 0 -0 -0 -0 0 0 0 0 -0 0 0 0 0 0 0
0 0 0 0 0 0 0 0 0 0 0 0 0 0 0 0 0 0 0 0 0 0 0 0 -0 0 -0 0 0 0 -0 0 -0 -0 0 0 -0 0 -0 0 0 -0 0 0
0 0 0 0 0 0 0 0 0 0 0 0 0 0 0 0 0 0 0 0 0 0 0 0 -0 -0 0 0 0 0 0 0 0 -0 0 0 -0 -0 -0 0 0 0 0 0
0 0 0 0 0 0 0 0 0 0 0 0 0 0 0 0 0 0 0 0 0 0 0 0 -0 0 0 0 0 0 -0 -0 -0 0 0 -0 0 -0 0 0 0 0 0 0
0 0 0 0 0 0 0 0 0 0 0 0 0 0 0 -0 0 0 0 0 0 0 0 0 -0 -0 0 0 0 0 -0 0 0 -0 0 0 0 0 0 0 0 0 0 0
0 0 0 0 0 0 0 0 0 0 0 0 0 0 0 0 0 0 0 0 0 0 0 0 0 0 0 0 0 -0 0 0 -0 0 0 0 0 0 0 0 0 0 0 0
0 0 0 0 0 0 0 0 0 0 0 0 0 0 0 0 0 0 0 0 0 0 0 0 0 -0 0 0 0 0 0 -0 -0 0 0 0 0 -0 0 0 0 0 0 0
0 0 0 0 0 0 0 0 0 0 0 0 0 0 0 0 0 0 0 0 0 0 0 0 -0 0 0 0 0 0 -0 0 -0 0 0 0 0 0 0 0 0 0 0 0
0 0 0 0 0 0 0 0 0 0 0 0 0 0 0 0 0 0 0 0 0 0 0 0 0 0 -0 -0 0 0 0 0 0 0 0 0 0 -0 0 0 0 0 0 0
0 0 0 0 0 0 0 0 0 0 0 0 0 0 0 0 0 0 0 0 0 0 0 0 -0 -0 -0 -0 0 -0 0 0 -0 0 0 -0 0 -0 0 0 0 0 0 0
0 0 0 0 0 0 0 0 0 0 0 0 0 0 0 0 0 0 0 0 0 0 0 0 0 -0 -0 -0 -0 0 0 0 0 0 0 -0 0 -0 0 0 0 0 0 0
0 0 0 0 0 0 0 0 0 0 0 0 0 0 0 0 0 0 0 0 0 0 0 0 0 -0 -0 -0 0 0 0 0 0 0 0 0 -0 -0 0 0 0 0 0 0
0 0 0 0 0 0 0 0 0 0 0 0 0 0 0 0 0 0 0 0 0 0 0 0 0 -0 0 0 0 0 0 0 0 0 0 0 0 0 -0 0 0 0 0 0
0 0 0 0 0 0 0 0 0 0 0 0 0 0 0 -0 -0 -0 0 0 0 0 0 0 0 -0 0 0 0 0 0 0 0 0 0 0 0 0 0 0 0 0 0 0
0 0 0 0 0 0 0 0 0 0 0 0 0 0 -0 0 0 0 0 0 0 0 0 0 0 0 -0 0 0 -0 0 0 0 0 0 0 0 0 0 0 0 0 0 0
0 0 0 0 0 0 0 0 0 0 0 0 0 0 0 0 0 0 0 0 0 0 0 0 0 0 0 0 0 0 -0 0 0 0 0 0 0 0 0 0 0 0 0 0
0 0 0 0 0 0 0 0 0 0 0 0 -0 0 -0 -0 0 0 0 0 0 0 0 0 0 0 0 0 0 -0 -0 0 0 0 0 0 0 0 0 0 0 0 0 0
0 0 0 0 0 0 0 0 0 0 0 0 0 -0 -0 0 0 0 0 0 0 0 0 0 0 0 0 -0 0 -0 -0 -0 0 0 0 0 0 0 0 0 0 0 0 0
0 0 0 0 0 0 0 0 0 0 0 0 0 0 0 0 0 0 0 0 0 0 0 0 0 0 0 0 -0 -0 -0 -0 -0 0 0 0 0 0 0 0 0 0 0 0
0 0 0 0 0 0 -0 0 0 0 0 -0 -0 0 0 0 0 0 0 0 0 0 0 0 0 0 0 0 -0 0 -0 -0 0 0 0 0 0 0 0 0 0 0 0 0
Wind_Speed_500mb
63 66 69 69 80 79 78 28 12 24 33 23 28 17 18 17 26 35 31 24 31 32 37 27 16 20 25 14 17 8 13 9 16 43 47 41 32 38 35 20 27 27 32 38
60 61 66 64 70 76 74 33 21 14 32 13 16 26 32 12 23 27 28 27 32 37 35 16 21 38 37 52 12 6 4 8 13 22 5 20 7 22 40 34 31 34 24 14
58 59 59 59 62 68 44 25 12 23 17 1 20 26 23 28 24 26 22 34 36 29 38 34 26 48 17 36 37 32 15 11 23 26 39 24 9 26 43 33 22 30 33 37
58 58 57 52 57 58 29 20 15 10 14 27 33 31 26 31 34 20 39 32 42 47 37 50 33 42 58 46 9 7 5 13 30 39 46 48 49 38 38 28 35 31 32 35
56 56 55 50 52 55 20 22 18 25 39 31 28 21 25 32 33 39 34 34 45 47 37 33 56 52 40 10 7 6 6 10 29 47 38 32 22 9 27 26 28 26 31 51
57 56 54 51 50 47 13 23 21 22 31 34 27 23 30 41 40 22 42 44 43 46 48 68 78 63 57 12 5 4 7 8 10 15 21 19 6 10 24 25 19 6 16 38
54 55 51 49 46 39 22 20 18 25 21 27 30 34 36 39 41 41 47 37 38 50 73 73 65 15 19 12 16 17 13 21 11 19 34 5 15 21 26 20 30 16 29 36
50 50 49 47 43 42 33 23 11 14 15 41 30 39 39 41 40 35 37 39 48 44 54 32 21 8 10 12 6 19 18 11 10 11 26 2 18 22 17 9 13 17 34 44
52 51 48 46 44 47 40 29 15 11 20 16 39 36 35 28 27 25 38 36 44 34 20 19 13 9 25 11 19 17 31 19 12 14 16 9 19 45 60 1 6 48 50 43
50 44 48 48 46 46 43 31 22 17 19 30 29 32 29 30 26 19 41 50 29 27 23 13 16 14 22 13 18 21 20 16 17 19 8 9 34 50 68 9 17 54 52 33
48 44 46 49 54 45 42 33 30 21 18 54 39 33 42 38 33 21 33 26 16 11 15 10 14 10 11 12 23 7 9 14 12 14 10 10 61 32 18 27 59 40 40 28
45 48 47 51 51 46 41 39 28 18 30 47 63 51 46 52 41 35 16 26 26 11 6 6 8 16 6 18 8 9 4 9 11 10 9 22 43 27 56 37 30 31 34 25
46 44 46 50 49 42 41 35 20 17 24 51 30 27 21 25 25 28 18 5 14 16 18 7 7 8 4 9 9 16 2 10 8 18 7 32 27 55 62 30 29 29 35 37
45 40 41 47 42 32 38 35 24 22 15 15 12 13 21 23 23 27 38 41 32 26 31 10 8 7 8 5 11 10 9 23 19 14 12 35 15 55 49 22 24 36 45 48
47 45 35 31 25 30 30 31 33 26 15 15 36 56 15 5 28 38 31 31 30 17 15 8 15 10 10 3 7 2 10 9 9 7 28 13 33 51 25 24 30 45 58 59
39 35 33 27 24 25 15 12 12 28 25 12 10 21 26 21 19 21 23 22 18 17 14 20 14 4 8 6 4 2 8 14 21 13 43 33 33 26 24 34 37 52 62 65
34 33 27 27 26 27 20 11 8 14 30 8 16 10 7 7 19 24 17 15 16 18 12 10 16 9 7 6 5 3 11 13 17 18 22 15 25 17 27 41 53 65 69 65
27 22 21 24 22 27 36 30 34 15 16 11 8 11 19 17 20 19 19 16 16 12 10 22 20 9 3 4 6 3 7 10 12 14 14 11 13 21 32 45 52 58 63 68
19 18 22 20 22 16 13 11 16 19 18 9 11 9 5 8 21 13 7 6 6 7 8 16 9 8 4 9 13 7 3 1 7 10 11 14 21 22 25 35 42 51 49 53
20 21 11 10 9 13 7 16 15 21 14 15 12 30 19 12 19 9 14 9 4 4 10 9 7 5 8 4 6 5 6 6 3 4 7 10 17 23 25 34 39 44 50 53
20 8 11 12 8 10 8 11 11 14 9 15 18 34 24 30 15 11 11 4 2 5 1 6 6 2 9 10 8 9 10 6 4 6 9 8 14 22 31 35 42 47 51 52
10 10 13 9 11 14 9 7 10 14 10 20 24 16 26 9 6 12 5 3 6 8 3 2 5 8 19 10 12 14 11 8 8 11 13 12 15 19 26 32 38 47 55 59
22 8 7 9 12 9 9 13 9 8 10 12 10 10 15 13 15 12 5 7 7 4 2 5 4 21 15 14 14 16 11 14 9 16 17 17 17 20 26 36 38 42 41 51
11 10 9 11 10 12 15 21 14 12 5 17 25 17 14 15 10 9 7 2 4 5 4 2 8 22 19 19 16 20 19 15 16 19 21 23 24 25 30 37 41 36 38 36
13 11 10 18 29 29 12 12 11 9 13 17 20 16 17 7 7 6 6 5 8 4 6 7 21 24 21 26 22 20 24 24 23 22 24 27 33 34 34 38 39 40 37 35
12 16 11 30 24 22 24 22 13 14 34 37 22 7 7 11 6 8 13 7 7 6 6 20 16 22 23 24 27 24 24 26 26 25 27 30 31 34 36 36 35 35 30 30
13 16 34 43 49 37 21 13 24 36 47 18 11 10 11 6 7 8 5 3 3 9 8 12 17 26 27 25 26 27 28 28 28 28 28 27 27 28 28 29 27 26 25 24
Wind_Direction_500mb
347 349 351 354 354 356 3 347 310 345 346 299 357 1 336 321 317 319 312 295 308 319 331 307 291 276 288 8 330 253 252 270 275 276 273 270 226 231 227 245 256 258 260 261
343 346 351 357 1 358 349 336 311 330 6 7 352 332 321 278 301 315 309 301 310 320 313 300 247 291 293 318 295 241 202 241 287 296 209 28 276 248 244 239 259 258 260 269
341 344 346 354 1 0 359 333 329 345 315 238 346 337 313 322 330 321 305 301 298 299 307 319 287 290 305 291 308 300 247 234 245 274 297 311 237 246 256 231 244 257 258 273
338 340 343 349 353 360 9 351 354 349 311 328 327 306 309 310 327 331 313 315 321 322 324 312 308 303 312 318 326 331 243 266 269 265 270 270 270 244 254 233 242 244 261 266
335 336 338 344 354 357 346 333 342 322 298 318 303 308 336 327 326 319 314 304 324 318 313 302 316 313 301 290 323 280 230 275 299 288 278 262 225 292 352 312 299 287 265 266
329 331 333 336 349 357 358 337 323 301 301 325 317 333 324 315 316 309 309 310 307 317 326 319 302 288 277 238 208 253 272 294 293 277 325 289 122 27 342 294 268 285 244 270
319 325 327 334 339 347 339 314 312 301 302 322 326 314 307 316 317 309 304 318 318 329 322 311 302 286 249 219 215 216 305 311 268 287 314 337 140 53 341 295 284 256 282 284
307 317 321 326 326 332 329 311 306 310 292 308 307 326 316 315 307 307 314 340 333 330 322 313 350 311 270 330 338 224 290 282 286 298 322 145 142 355 318 315 285 336 343 338
298 305 310 318 318 322 320 315 285 280 305 309 325 312 300 316 321 318 323 328 335 338 319 338 336 325 326 333 340 353 330 286 260 310 314 332 357 337 323 117 238 357 337 323
293 295 299 305 310 312 320 304 289 240 270 285 311 303 313 303 321 304 315 339 323 1 338 340 347 318 330 340 334 338 337 345 321 319 305 95 359 339 320 338 336 322 325 341
292 286 291 301 302 306 310 305 296 253 260 287 287 284 288 286 285 294 333 330 357 348 4 334 350 320 335 308 325 339 318 324 339 328 316 349 360 343 14 301 304 323 357 50
302 282 282 291 302 305 300 297 296 271 247 274 288 289 277 252 263 283 277 296 300 335 352 327 304 312 328 315 309 324 329 4 311 321 331 347 330 325 329 344 340 19 23 66
309 297 283 279 290 290 298 290 267 257 277 301 280 285 297 251 257 234 253 306 353 329 344 302 279 292 265 318 348 319 89 4 277 327 54 343 330 351 358 354 22 52 69 78
321 305 290 285 284 287 291 279 278 239 284 279 309 306 281 277 253 238 237 263 290 301 302 262 268 282 234 301 295 293 360 309 326 274 349 333 341 348 354 359 75 93 96 86
313 320 308 291 276 285 276 272 268 238 238 297 300 302 284 272 225 237 241 253 263 280 290 264 293 276 336 264 260 43 1 334 330 317 325 304 298 336 353 41 91 99 106 94
306 311 314 289 278 273 263 295 264 234 217 288 290 317 281 255 233 225 243 244 240 243 289 291 268 341 309 312 302 76 319 299 284 280 309 318 335 358 54 78 92 112 115 106
309 299 309 291 266 260 237 240 216 193 202 258 279 267 181 221 223 238 221 220 235 245 285 252 273 286 233 308 280 264 323 319 337 340 352 353 16 37 77 99 92 103 112 113
305 318 302 275 264 262 273 274 244 212 213 248 269 271 261 190 240 205 205 204 216 215 249 263 268 211 220 256 220 268 321 305 347 5 18 24 39 75 104 103 109 100 97 106
311 300 290 264 257 244 253 248 203 227 224 273 252 267 313 196 240 270 223 260 243 228 246 263 308 262 17 319 333 356 355 352 347 26 45 67 80 90 104 118 119 117 113 112
288 280 267 259 234 248 184 160 178 196 226 234 250 262 268 292 291 256 178 209 217 243 221 323 274 189 94 62 40 42 103 127 39 332 54 80 93 107 115 119 128 126 120 117
239 239 228 268 266 185 231 201 194 199 236 222 243 236 244 239 255 316 254 151 145 267 107 281 222 253 122 124 123 121 121 118 72 91 80 126 134 134 133 130 130 131 128 121
240 253 277 246 211 225 237 204 207 208 242 191 235 201 212 207 214 254 233 257 220 265 273 244 254 91 116 136 143 138 137 132 122 126 110 119 135 140 142 141 137 135 131 125
257 269 253 211 209 234 228 203 206 219 216 233 205 199 195 201 228 258 258 242 235 233 254 238 23 103 124 134 137 146 138 137 133 138 129 115 133 144 147 143 143 139 134 134
236 222 241 223 191 226 207 250 298 224 229 308 261 209 212 235 182 251 252 195 253 242 245 347 103 116 129 134 144 144 140 131 144 138 133 130 134 141 149 151 146 132 129 129
231 215 238 225 243 275 284 285 286 253 257 275 265 228 252 228 255 234 304 246 233 263 54 17 95 129 137 138 141 138 137 136 133 132 134 138 135 134 140 147 146 142 139 131
231 227 250 251 270 260 266 246 255 236 264 263 251 257 236 206 228 215 223 247 10 9 54 82 125 143 141 142 146 149 142 139 138 136 130 131 131 135 138 142 145 140 137 141
222 233 234 261 278 281 281 244 228 218 278 235 254 240 209 208 216 214 229 204 210 39 67 101 143 155 151 148 139 148 144 140 139 138 141 137 135 136 137 139 144 147 148 153
Wind_Speed_850mb
63 66 69 69 80 79 78 28 12 24 33 23 28 17 18 17 26 35 31 24 31 32 37 27 16 20 25 14 17 8 13 9 16 43 47 41 32 38 35 20 27 27 32 38
60 61 66 64 70 76 74 33 21 14 32 13 16 26 32 12 23 27 28 27 32 37 35 16 21 38 37 52 12 6 4 8 13 22 5 20 7 22 40 34 31 34 24 14
58 59 59 59 62 68 44 25 12 23 17 1 20 26 23 28 24 26 22 34 36 29 38 34 26 48 17 36 37 32 15 11 23 26 39 24 9 26 43 33 22 30 33 37
58 58 57 52 57 58 29 20 15 10 14 27 33 31 26 31 34 20 39 32 42 47 37 50 33 42 58 46 9 7 5 13 30 39 46 48 49 38 38 28 35 31 32 35
56 56 55 50 52 55 20 22 18 25 39 31 28 21 25 32 33 39 34 34 45 47 37 33 56 52 40 10 7 6 6 10 29 47 38 32 22 9 27 26 28 26 31 51
57 56 54 51 50 47 13 23 21 22 31 34 27 23 30 41 40 22 42 44 43 46 48 68 78 63 57 12 5 4 7 8 10 15 21 19 6 10 24 25 19 6 16 38
54 55 51 49 46 39 22 20 18 25 21 27 30 34 36 39 41 41 47 37 38 50 73 73 65 15 19 12 16 17 13 21 11 19 34 5 15 21 26 20 30 16 29 36
50 50 49 47 43 42 33 23 11 14 15 41 30 39 39 41 40 35 37 39 48 44 54 32 21 8 10 12 6 19 18 11 10 11 26 2 18 22 17 9 13 17 34 44
52 51 48 46 44 47 40 29 15 11 20 16 39 36 35 28 27 25 38 36 44 34 20 19 13 9 25 11 19 17 31 19 12 14 16 9 19 45 60 1 6 48 50 43
50 44 48 48 46 46 43 31 22 17 19 30 29 32 29 30 26 19 41 50 29 27 23 13 16 14 22 13 18 21 20 16 17 19 8 9 34 50 68 9 17 54 52 33
48 44 46 49 54 45 42 33 30 21 18 54 39 33 42 38 33 21 33 26 16 11 15 10 14 10 11 12 23 7 9 14 12 14 10 10 61 32 18 27 59 40 40 28
45 48 47 51 51 46 41 39 28 18 30 47 63 51 46 52 41 35 16 26 26 11 6 6 8 16 6 18 8 9 4 9 11 10 9 22 43 27 56 37 30 31 34 25
46 44 46 50 49 42 41 35 20 17 24 51 30 27 21 25 25 28 18 5 14 16 18 7 7 8 4 9 9 16 2 10 8 18 7 32 27 55 62 30 29 29 35 37
45 40 41 47 42 32 38 35 24 22 15 15 12 13 21 23 23 27 38 41 32 26 31 10 8 7 8 5 11 10 9 23 19 14 12 35 15 55 49 22 24 36 45 48
47 45 35 31 25 30 30 31 33 26 15 15 36 56 15 5 28 38 31 31 30 17 15 8 15 10 10 3 7 2 10 9 9 7 28 13 33 51 25 24 30 45 58 59
39 35 33 27 24 25 15 12 12 28 25 12 10 21 26 21 19 21 23 22 18 17 14 20 14 4 8 6 4 2 8 14 21 13 43 33 33 26 24 34 37 52 62 65
34 33 27 27 26 27 20 11 8 14 30 8 16 10 7 7 19 24 17 15 16 18 12 10 16 9 7 6 5 3 11 13 17 18 22 15 25 17 27 41 53 65 69 65
27 22 21 24 22 27 36 30 34 15 16 11 8 11 19 17 20 19 19 16 16 12 10 22 20 9 3 4 6 3 7 10 12 14 14 11 13 21 32 45 52 58 63 68
19 18 22 20 22 16 13 11 16 19 18 9 11 9 5 8 21 13 7 6 6 7 8 16 9 8 4 9 13 7 3 1 7 10 11 14 21 22 25 35 42 51 49 53
20 21 11 10 9 13 7 16 15 21 14 15 12 30 19 12 19 9 14 9 4 4 10 9 7 5 8 4 6 5 6 6 3 4 7 10 17 23 25 34 39 44 50 53
20 8 11 12 8 10 8 11 11 14 9 15 18 34 24 30 15 11 11 4 2 5 1 6 6 2 9 10 8 9 10 6 4 6 9 8 14 22 31 35 42 47 51 52
10 10 13 9 11 14 9 7 10 14 10 20 24 16 26 9 6 12 5 3 6 8 3 2 5 8 19 10 12 14 11 8 8 11 13 12 15 19 26 32 38 47 55 59
22 8 7 9 12 9 9 13 9 8 10 12 10 10 15 13 15 12 5 7 7 4 2 5 4 21 15 14 14 16 11 14 9 16 17 17 17 20 26 36 38 42 41 51
11 10 9 11 10 12 15 21 14 12 5 17 25 17 14 15 10 9 7 2 4 5 4 2 8 22 19 19 16 20 19 15 16 19 21 23 24 25 30 37 41 36 38 36
13 11 10 18 29 29 12 12 11 9 13 17 20 16 17 7 7 6 6 5 8 4 6 7 21 24 21 26 22 20 24 24 23 22 24 27 33 34 34 38 39 40 37 35
12 16 11 30 24 22 24 22 13 14 34 37 22 7 7 11 6 8 13 7 7 6 6 20 16 22 23 24 27 24 24 26 26 25 27 30 31 34 36 36 35 35 30 30
13 16 34 43 49 37 21 13 24 36 47 18 11 10 11 6 7 8 5 3 3 9 8 12 17 26 27 25 26 27 28 28 28 28 28 27 27 28 28 29 27 26 25 24
Wind_Direction_850mb
347 349 351 354 354 356 3 347 310 345 346 299 357 1 336 321 317 319 312 295 308 319 331 307 291 276 288 8 330 253 252 270 275 276 273 270 226 231 227 245 256 258 260 261
343 346 351 357 1 358 349 336 311 330 6 7 352 332 321 278 301 315 309 301 310 320 313 300 247 291 293 318 295 241 202 241 287 296 209 28 276 248 244 239 259 258 260 269
341 344 346 354 1 0 359 333 329 345 315 238 346 337 313 322 330 321 305 301 298 299 307 319 287 290 305 291 308 300 247 234 245 274 297 311 237 246 256 231 244 257 258 273
338 340 343 349 353 360 9 351 354 349 311 328 327 306 309 310 327 331 313 315 321 322 324 312 308 303 312 318 326 331 243 266 269 265 270 270 270 244 254 233 242 244 261 266
335 336 338 344 354 357 346 333 342 322 298 318 303 308 336 327 326 319 314 304 324 318 313 302 316 313 301 290 323 280 230 275 299 288 278 262 225 292 352 312 299 287 265 266
329 331 333 336 349 357 358 337 323 301 301 325 317 333 324 315 316 309 309 310 307 317 326 319 302 288 277 238 208 253 272 294 293 277 325 289 122 27 342 294 268 285 244 270
319 325 327 334 339 347 339 314 312 301 302 322 326 314 307 316 317 309 304 318 318 329 322 311 302 286 249 219 215 216 305 311 268 287 314 337 140 53 341 295 284 256 282 284
307 317 321 326 326 332 329 311 306 310 292 308 307 326 316 315 307 307 314 340 333 330 322 313 350 311 270 330 338 224 290 282 286 298 322 145 142 355 318 315 285 336 343 338
298 305 310 318 318 322 320 315 285 280 305 309 325 312 300 316 321 318 323 328 335 338 319 338 336 325 326 333 340 353 330 286 260 310 314 332 357 337 323 117 238 357 337 323
293 295 299 305 310 312 320 304 289 240 270 285 311 303 313 303 321 304 315 339 323 1 338 340 347 318 330 340 334 338 337 345 321 319 305 95 359 339 320 338 336 322 325 341
292 286 291 301 302 306 310 305 296 253 260 287 287 284 288 286 285 294 333 330 357 348 4 334 350 320 335 308 325 339 318 324 339 328 316 349 360 343 14 301 304 323 357 50
302 282 282 291 302 305 300 297 296 271 247 274 288 289 277 252 263 283 277 296 300 335 352 327 304 312 328 315 309 324 329 4 311 321 331 347 330 325 329 344 340 19 23 66
309 297 283 279 290 290 298 290 267 257 277 301 280 285 297 251 257 234 253 306 353 329 344 302 279 292 265 318 348 319 89 4 277 327 54 343 330 351 358 354 22 52 69 78
321 305 290 285 284 287 291 279 278 239 284 279 309 306 281 277 253 238 237 263 290 301 302 262 268 282 234 301 295 293 360 309 326 274 349 333 341 348 354 359 75 93 96 86
313 320 308 291 276 285 276 272 268 238 238 297 300 302 284 272 225 237 241 253 263 280 290 264 293 276 336 264 260 43 1 334 330 317 325 304 298 336 353 41 91 99 106 94
306 311 314 289 278 273 263 295 264 234 217 288 290 317 281 255 233 225 243 244 240 243 289 291 268 341 309 312 302 76 319 299 284 280 309 318 335 358 54 78 92 112 115 106
309 299 309 291 266 260 237 240 216 193 202 258 279 267 181 221 223 238 221 220 235 245 285 252 273 286 233 308 280 264 323 319 337 340 352 353 16 37 77 99 92 103 112 113
305 318 302 275 264 262 273 274 244 212 213 248 269 271 261 190 240 205 205 204 216 215 249 263 268 211 220 256 220 268 321 305 347 5 18 24 39 75 104 103 109 100 97 106
311 300 290 264 257 244 253 248 203 227 224 273 252 267 313 196 240 270 223 260 243 228 246 263 308 262 17 319 333 356 355 352 347 26 45 67 80 90 104 118 119 117 113 112
288 280 267 259 234 248 184 160 178 196 226 234 250 262 268 292 291 256 178 209 217 243 221 323 274 189 94 62 40 42 103 127 39 332 54 80 93 107 115 119 128 126 120 117
239 239 228 268 266 185 231 201 194 199 236 222 243 236 244 239 255 316 254 151 145 267 107 281 222 253 122 124 123 121 121 118 72 91 80 126 134 134 133 130 130 131 128 121
240 253 277 246 211 225 237 204 207 208 242 191 235 201 212 207 214 254 233 257 220 265 273 244 254 91 116 136 143 138 137 132 122 126 110 119 135 140 142 141 137 135 131 125
257 269 253 211 209 234 228 203 206 219 216 233 205 199 195 201 228 258 258 242 235 233 254 238 23 103 124 134 137 146 138 137 133 138 129 115 133 144 147 143 143 139 134 134
236 222 241 223 191 226 207 250 298 224 229 308 261 209 212 235 182 251 252 195 253 242 245 347 103 116 129 134 144 144 140 131 144 138 133 130 134 141 149 151 146 132 129 129
231 215 238 225 243 275 284 285 286 253 257 275 265 228 252 228 255 234 304 246 233 263 54 17 95 129 137 138 141 138 137 136 133 132 134 138 135 134 140 147 146 142 139 131
231 227 250 251 270 260 266 246 255 236 264 263 251 257 236 206 228 215 223 247 10 9 54 82 125 143 141 142 146 149 142 139 138 136 130 131 131 135 138 142 145 140 137 141
222 233 234 261 278 281 281 244 228 218 278 235 254 240 209 208 216 214 229 204 210 39 67 101 143 155 151 148 139 148 144 140 139 138 141 137 135 136 137 139 144 147 148 153